Location: Ammareddip?lem
(16.9681°N, 80.4999°E)
Time: 13:17:20
(UTC+00:00)

Envisat - Pass Details

Date: 28 October 2021
Orbit: 764 x 766 km, 98.2° (Epoch: 04 December)

Event Time Altitude Azimuth Distance (km) Brightness Sun altitude
Rises 23:38:31 0° 7° (N) 3,222 6.2 -14.0°
Reaches altitude 10° 23:40:49 10° 5° (N) 2,295 5.4 -13.5°
Maximum altitude 23:45:50 67° 283° (WNW) 824 2.9 -12.3°
Drops below altitude 10° 23:50:51 10° 201° (SSW) 2,291 5.4 -11.1°
Sets 23:53:09 0° 198° (SSW) 3,215 6.2 -10.6°
